Other Public Products
Issued by NWS Grand Forks, ND

Home | Current Version | Previous Version | Graphics & Text | Print | Product List | Glossary On
Versions: 1 2 3 4 5 6 7 8 9 10 11 12 13 14 15 16 17 18 19 20 21 22 23 24 25 26 27 28 29 30 31 32 33 34 35 36 37 38 39 40 41 42 43 44 45 46 47 48 49 50
000
FPUS83 KFGF 011710
OPUFGF
PRAIRIE TO PINES WEATHER ROUNDUP
NATIONAL WEATHER SERVICE EASTERN NORTH DAKOTA/GRAND FORKS ND
1200 PM CDT SAT AUG 01 2015

 **SATELLITE DATA USED TO AUGMENT SKY COVER AT AUTOMATED STATIONS**
 *****  WEATHER ACROSS EASTERN NORTH DAKOTA  *****

CITY           SKY/WX    TMP DP  RH WIND       PRES   REMARKS
GRAND FORKS    MOSUNNY   81  52  36 SW12      29.86F
GRAND FORKS AF SUNNY     80  56  42 S9        29.87F
GRAND CITY NWS   N/A     79 N/A N/A S12         N/A
BUXTON         NOT AVBL
DEVILS LAKE    SUNNY     79  55  44 S8        29.87F
FARGO          SUNNY     80  55  42 S7        29.90F
WAHPETON ARPT  MOSUNNY   81  50  34 SE7       29.92F
$$

 *****  WEATHER ACROSS CENTRAL AND WESTERN NORTH DAKOTA  *****

CITY           SKY/WX    TMP DP  RH WIND       PRES   REMARKS
JAMESTOWN      SUNNY     80  60  50 SE10      29.88F
BISMARCK       SUNNY     82  60  47 VRB3      29.87F
MINOT          SUNNY     81  51  35 S8        29.88S
MINOT AFB      NOT AVBL
GARRISON         N/A     78  58  49 E8        29.89S
WILLISTON      SUNNY     82  56  40 VRB5      29.90S
DICKINSON      SUNNY     83  52  34 NW7       29.92S
HETTINGER      SUNNY     88  46  23 NW16      29.95S
$$

 *****  OTHER OBSERVATIONS NORTHEAST NORTH DAKOTA  *****

CITY           SKY/WX    TMP DP  RH WIND       PRES   REMARKS
WALHALLA       FAIR      77  55  47 MISG      29.86F
LANGDON        FAIR      81  52  36 SW10      29.90R
CAVALIER       FAIR      77  54  44 SW7       29.86F
GRAFTON        FAIR      79  54  41 VRB6G12   29.87F
CANDO          NOT AVBL
FORT TOTTEN      N/A     80  58  46 S7        29.95
ROLLA            N/A     75  59  57 SW7       29.89F
RUGBY          NOT AVBL
 ***** THE ABOVE OBSERVATIONS ARE NON NWS ARE NOT QUALITY
        CONTROLLED AND MAY MIS-REPORT RAIN FOR SNOW...
$$

 *****  OTHER OBSERVATIONS SOUTHEAST NORTH DAKOTA *****

CITY           SKY/WX    TMP DP  RH WIND       PRES   REMARKS
COOPERSTOWN    NOT AVBL
VALLEY CITY    FAIR      79  59  50 SE13      29.90F
OAKES            N/A     84  63  48 E14G22    29.88F
GWINNER        FAIR      79  63  57 SE12      29.90F
SHEYENNE NWR     N/A     81  61  49 SE8       29.95
BUFFALO        NOT AVBL
WYNDMERE         N/A    N/A N/A N/A S8          N/A
 ***** THE ABOVE OBSERVATIONS ARE NON NWS ARE NOT QUALITY
       CONTROLLED AND MAY MIS-REPORT RAIN FOR SNOW...
$$

  *****  WEATHER ACROSS NORTHERN MINNESOTA  *****

CITY           SKY/WX    TMP DP  RH WIND       PRES   REMARKS
FLAG ISLAND    SUNNY     75  48  38 W10G22    29.82F
WARROAD        SUNNY     75  57  53 W8        29.86F
ROSEAU         SUNNY     77  57  50 SW12      29.86F
HALLOCK        SUNNY     79  55  44 W7        29.86F
THF RVR FALLS  SUNNY     75  55  50 W8        29.90S
HALSTAD        NOT AVBL
FOSSTON        SUNNY     75  55  50 SW9       29.92F
BAUDETTE       SUNNY     77  49  37 W12G17    29.86F
WASKISH        SUNNY     75  57  53 SW12      29.90S
CROOKSTON      SUNNY     77  54  44 SW9       29.90F
$$
  *****  WEATHER ACROSS CENTRAL AND WEST MINNESOTA  *****

CITY           SKY/WX    TMP DP  RH WIND       PRES   REMARKS
BEMIDJI        SUNNY     76  51  40 W9        29.92F
PARK RAPIDS    SUNNY     79  51  37 W10       29.94F
WADENA         SUNNY     79  52  38 SW5       29.95F
DETROIT LAKES  SUNNY     77  52  41 SE6       29.95F
MOORHEAD       SUNNY     79  57  47 SE8       29.91F
FERGUS FALLS   SUNNY     79  57  47 S3        29.92F
ELBOW LAKE     FAIR      79  58  48 SE6       29.94F
MORRIS MN      MOSUNNY   77  63  61 SE7       29.94F
STAPLES        SUNNY     79  52  38 W8        29.96F
WHEATON        MOSUNNY   75  63  64 SE10      29.94F
$$
  *****  WEATHER ELSEWHERE ACROSS MINNESOTA  *****

CITY           SKY/WX    TMP DP  RH WIND       PRES   REMARKS
DULUTH         MOSUNNY   77  50  38 NW13G21   29.92S
INTRNTL FALLS  SUNNY     76  51  41 W13G21    29.86F
ELY            MOSUNNY   72  48  43 NW14G20   29.89S
CLOQUET        SUNNY     77  45  31 NW14G20   29.93S
BRAINERD       SUNNY     78  50  37 W8        29.95F
HIBBING        MOSUNNY   77  48  35 W8        29.91F
ALEXANDRIA     MOSUNNY   79  50  36 SW7       29.98F
SAINT CLOUD    SUNNY     81  51  35 VRB3      29.96F
MINNEAPOLIS    MOSUNNY   82  53  36 W9        29.96F
$$

  *****  WEATHER ACROSS SOUTH DAKOTA  *****

CITY           SKY/WX    TMP DP  RH WIND       PRES   REMARKS
SIOUX FALLS    PTSUNNY   78  64  61 SW12G21   30.00F
BROOKINGS      SUNNY     82  66  57 S15       29.97F
WATERTOWN      MOSUNNY   82  69  64 S10       29.94F
HURON          SUNNY     84  65  52 S9        29.91F
SISSETON         N/A     77  62  59 S10       29.92F
ABERDEEN       MOSUNNY   82  68  62 S12       29.89F
MITCHELL       PTSUNNY   77  61  57 S13       29.94F
PIERRE         SUNNY     85  57  38 SW17G25   29.91S
MOBRIDGE       SUNNY     85  66  53 S10       29.86F
RAPID CITY     SUNNY     83  59  44 S6        30.03S
$$

  *****  SOME WEATHER IN NEARBY STATES *****

CITY           SKY/WX    TMP DP  RH WIND       PRES   REMARKS
GLASGOW MT     SUNNY     85  51  31 S7        29.87F
GREAT FALLS MT SUNNY     87  35  15 SW9       30.02F
CHEYENNE WY    SUNNY     83  45  26 S14       30.22S
SCOTTSBLUFF NE SUNNY     84  57  39 W7        30.08F
OMAHA NE       CLOUDY    78  65  63 N5        30.03R
DES MOINES IA  CLOUDY    83  69  62 SW9       30.02F
DAVENPORT IA   MOSUNNY   81  62  52 SW10      30.02S
CHICAGO IL     MOSUNNY   82  55  39 NW12      29.98F
EAU CLAIRE WI  SUNNY     79  51  37 SW8       29.96S
LA CROSSE WI   SUNNY     80  58  46 W3        29.96F
$$

  *****  SOME NATIONAL WEATHER *****

CITY           SKY/WX    TMP DP  RH WIND       PRES   REMARKS
LA GUARDIA NY  MOSUNNY   87  58  37 W8        29.79F
RALEIGH NC     MOSUNNY   89  60  37 NE6       29.95F
ATLANTA GA     PTSUNNY   84  64  50 E10       30.01S
NEW ORLEANS LA MOSUNNY   86  69  56 N8        29.94S HX  90
OKLAHOMA CITY  MOSUNNY   86  68  54 S13       30.10S
ALBUQUERQUE NM MOSUNNY   76  56  49 CALM      30.28F
SALT LAKE CITY PTSUNNY   84  37  18 VRB3      30.14F
LOS ANGELES CA PTSUNNY   72  63  73 VRB6      29.99S
BOISE ID       SUNNY     88  35  15 SE6       30.04F
SEATTLE WA     MOSUNNY   72  51  47 W5        30.02F
$$

*** WEATHER ACROSS MANITOBA...SASKATCHEWAN AND ONTARIO ***
                ***ONTARIO***

CITY           SKY/WX    TMP DP  RH WIND       PRES   REMARKS
GERALDTON      PTSUNNY   70  50  49 W15G24    29.71F
THUNDER BAY    PTSUNNY   75  55  50 W15       29.79F
SIOUX LOOKOUT  PTSUNNY   72  52  49 W12       29.77F
TORONTO        PTSUNNY   75  50  41 W15G22    29.85S
BIG TROUT LK   MOSUNNY   66  52  59 NW17G30   29.51F
PICKLE LAKE    PTSUNNY   68  50  52 W16G22    29.66F
DRYDEN         SUNNY     75  52  43 W16G23    29.78F
KENORA         PTSUNNY   75  50  41 W13G22    29.82F
$$
                *** MANITOBA***

CITY           SKY/WX    TMP DP  RH WIND       PRES   REMARKS
BRANDON        MOSUNNY   77  57  50 W12       29.86F
DAUPHIN        MOSUNNY   70  59  68 NE5       29.83F
ISLAND LAKE    PTSUNNY   66  48  52 W16G26    29.64F
PILOT MOUND      N/A     75  55  50 SW8         N/A
THE PAS        MOSUNNY   68  54  60 NW8       29.77F
THOMPSON       PTSUNNY   63  45  51 NW14G26   29.66S
WINNIPEG       MOSUNNY   77  55  47 W13       29.83F
LYNN LAKE      SUNNY     63  39  42 NW22G29   29.76S
CHURCHILL      LGT RAIN  46  45  93 N28G35    29.45S FOG
GILLAM         CLOUDY    55  52  88 NW17G26   29.53
$$
                ***SASKATCHEWAN***

CITY           SKY/WX    TMP DP  RH WIND       PRES   REMARKS
ESTEVAN        NOT AVBL
KINDERSLEY     PTSUNNY   75  50  41 N16G23    29.91R
LLOYDMINSTER   LGT RAIN  59  55  88 W6        29.94F
PRINCE ALBERT  NOT AVBL
REGINA         MOSUNNY   81  59  47 VRB2      29.85F


USA.gov is the U.S. government's official web portal to all federal, state and local government web resources and services.